Content
SEND FEEDBACK

Daily
Averages
Monthly
Summary
United States of America

IMPERIAL, KANSAS


Home > North America > United States > Kansas
Elevation: 2800 feet     Latitude: 38 17N     Longitude: 100 39W

WEATHER
 
SELECT A DAY
Number of Records: 194,755;   Date Range: 1/1/95 - 7/26/14
 
SHARE

PRINT THIS DATA

[ ← Previous Day ]
WEATHER ALMANAC - JANUARY 31, 2013
[ Next Day → ]
[ °C ]   °F
Weather ElementAverageHighLow
Temperature27.5 °F39 °F (12:54 pm)19.4 °F (9:54 pm)
Dewpoint20.2 °F27 °F (2:54 pm)17.1 °F (1:54 am)
Humidity74.7 %93 % (9:54 pm)53 % (12:54 pm)
Barometer30.20 in30.39 in (8:54 pm)29.98 in (4:54 am)
Wind Speed10.7 mph18.4 mph (10:54 am)
Wind Gust26.5 mph (12:54 pm)
Weather ElementAverage
Visibility10 mi
Wind DirectionSSE (144.1 °)

Weather ElementTotal
Precipitation---
Heating Degree Days35.8 (Base 65)
Averaged from 27 records on January 31, 2013
WEATHER CONDITIONS BREAKOUT
WIND DIRECTION BREAKOUT
WEATHER BY HOUR - JANUARY 31, 2013
[ °C ]   °F
Local TimeTemperatureDewpointHumidityBarometerVisibilityWind DirectionWind SpeedGust SpeedPrecipitationEventsConditions
1:54 AM26.1 °F17.1 °F69 %30.02 in10.0 miWNW (290°)6.9 mphClear
2:54 AM25.0 °F17.1 °F72 %30.01 in10.0 miWest (270°)5.8 mphMostly Cloudy
3:54 AM24.1 °F17.1 °F75 %29.99 in10.0 miWest (260°)3.5 mphClear
4:54 AM24.1 °F17.1 °F75 %29.98 in10.0 miWSW (240°)8.1 mphMostly Cloudy
5:54 AM23.0 °F17.1 °F78 %29.99 in10.0 miWest (280°)8.1 mphMostly Cloudy
6:54 AM24.1 °F18.0 °F77 %30.03 in10.0 miWNW (300°)10.4 mphMostly Cloudy
7:54 AM26.1 °F18.0 °F71 %30.07 in10.0 miNNW (340°)12.7 mphPartly Cloudy
8:54 AM28.9 °F21.0 °F72 %30.11 in10.0 miNorth (360°)11.5 mphClear
9:54 AM33.1 °F24.1 °F70 %30.16 in10.0 miNNE (20°)11.5 mphScattered Clouds
10:54 AM37.0 °F26.1 °F65 %30.20 in10.0 miNorth (10°)18.4 mphPartly Cloudy
11:54 AM37.9 °F24.1 °F57 %30.21 in10.0 miNNE (20°)18.4 mphMostly Cloudy
12:54 PM39.0 °F23.0 °F53 %30.21 in10.0 miNNE (20°)18.4 mph26.5 mphClear
2:54 PM37.9 °F27.0 °F65 %30.23 in10.0 miENE (60°)17.3 mphClear
3:54 PM34.0 °F24.1 °F67 %30.28 in10.0 miENE (70°)13.8 mphPartly Cloudy
4:54 PM30.9 °F21.9 °F69 %30.30 in10.0 miENE (70°)12.7 mphMostly Cloudy
5:01 PM30.2 °F21.2 °F69 %30.23 in10.0 miEast (100°)13.8 mphScattered Clouds
5:09 PM30.2 °F21.2 °F69 %30.23 in10.0 miEast (80°)13.8 mphMostly Cloudy
5:54 PM27.0 °F21.0 °F78 %30.33 in10.0 miEast (90°)10.4 mphMostly Cloudy
6:22 PM26.6 °F21.2 °F80 %30.25 in10.0 miEast (90°)9.2 mphMostly Cloudy
6:31 PM24.8 °F19.4 °F80 %30.26 in10.0 miEast (80°)9.2 mphScattered Clouds
6:54 PM24.8 °F19.4 °F80 %30.28 in10.0 miEast (80°)9.2 mphMostly Cloudy
7:12 PM24.8 °F19.4 °F80 %30.27 in10.0 miENE (60°)11.5 mphScattered Clouds
7:54 PM23.0 °F19.0 °F85 %30.37 in10.0 miEast (100°)9.2 mphPartly Cloudy
8:54 PM21.0 °F18.0 °F88 %30.39 in10.0 miSSE (150°)5.8 mphClear
9:54 PM19.4 °F17.6 °F93 %30.30 in10.0 miSSE (150°)6.9 mphClear
10:54 PM19.9 °F18.0 °F92 %30.36 in9.0 miSSE (160°)4.6 mphPartly Cloudy
11:54 PM19.9 °F17.1 °F89 %30.35 in10.0 miSE (140°)6.9 mphClear
Hourly data recorded from KGCK, located miles away from Imperial, Kansas







STORIES FROM OUR PARTNERS